Flag for Russia Weather past 2 weeks in Samara, Russia

Now
68 °F

Broken clouds.


Feels Like: 68 °F
Forecast: 53 / 72 °F
Wind: 3 mph from Southwest

Location: Samara

Current Time: Aug 27, 2014 at 5:44:23 PM

Latest Report: Aug 27, 2014 at 5:00 PM


Visibility: N/A

Pressure: 29.92 "Hg

Humidity: 40%

Dew point: 43 °F

Location of SamaraLocation

Historic Weather in Samara — Graph

°F

Samara temperature yesterday

Maximum temperature yesterday: 70 °F (at 12:00 PM)
Minimum temperature yesterday: 61 °F (at 12:00 AM)
Average temperature yesterday: 63 °F

Past Weeks' High & Low Weather Summary

 TemperatureHumidityPressure
High99 °F (Aug 16, 2:00 PM)94% (Aug 21, 4:30 AM)30.12 "Hg (Aug 21, 4:30 AM)
Low50 °F (Aug 25, 4:30 AM)13% (Aug 16, 3:00 PM)29.56 "Hg (Aug 17, 3:00 PM)
Average70 °F57%29.90 "Hg
* Reported Aug 12 4:00 PM — Aug 27 4:30 PM, Samara, Weather by CustomWeather, © 2014

Note: Actual official high and low records may vary slightly from our data, if they occured in-between our weather recording intervals... More about our weather records

Advertising

Samara weather history for previous 24 hours

 ConditionsComfort  
Time TempWeatherWind HumidityBarometerVisibility
4:30 PM
Aug 27
70 °FBroken clouds.3 mph35%29.92 "HgN/A
4:00 PM70 °FCloudy.6 mph38%29.95 "HgN/A
3:30 PM70 °FCloudy.6 mph33%29.95 "HgN/A
3:00 PM70 °FCloudy.3 mph35%29.95 "HgN/A
2:30 PM70 °FCloudy.3 mph40%29.95 "HgN/A
2:00 PM70 °FCloudy.6 mph35%29.95 "HgN/A
1:30 PM68 °FCloudy.6 mph40%29.98 "HgN/A
1:00 PM68 °FCloudy.3 mph46%29.95 "HgN/A
12:30 PM66 °FCloudy.3 mph49%29.95 "HgN/A
12:00 PM66 °FCloudy.3 mph52%29.95 "HgN/A
11:30 AM64 °FMostly cloudy.3 mph56%29.98 "HgN/A
11:00 AM64 °FMostly cloudy.6 mph64%29.98 "HgN/A
10:30 AM64 °FMostly cloudy.3 mph60%29.98 "HgN/A
10:00 AM61 °FMostly cloudy.6 mph72%29.98 "HgN/A
9:30 AM61 °FMostly cloudy.6 mph72%29.95 "HgN/A
9:00 AM59 °FSunny.3 mph72%29.95 "Hg10 mi
8:30 AM59 °FSunny.6 mph77%29.95 "Hg10 mi
8:00 AM57 °FSunny.6 mph77%29.95 "Hg10 mi
7:30 AM55 °FSunny.6 mph82%29.92 "Hg10 mi
7:00 AM55 °FSunny.6 mph82%29.92 "Hg10 mi
6:30 AM54 °FClear.6 mph88%29.92 "Hg10 mi
6:00 AM54 °FClear.6 mph82%29.92 "Hg10 mi
5:30 AM54 °FClear.6 mph82%29.92 "Hg10 mi
5:00 AM54 °FClear.6 mph82%29.92 "Hg10 mi
4:30 AM52 °FMostly cloudy.3 mph82%29.92 "HgN/A
4:00 AM54 °FMostly cloudy.3 mph88%29.92 "HgN/A
3:30 AM54 °FMostly cloudy.6 mph88%29.92 "HgN/A
3:00 AM55 °FMostly cloudy.8 mph82%29.89 "HgN/A
2:30 AM55 °FMostly cloudy.8 mph88%29.89 "HgN/A
2:00 AM57 °FFog.6 mph94%29.89 "Hg2 mi
1:30 AM57 °FFog.6 mph94%29.89 "Hg2 mi
1:00 AM57 °FFog.6 mph94%29.89 "Hg1 mi
12:30 AM59 °FFog.6 mph94%29.89 "Hg0 mi
12:00 AM59 °FFog.8 mph94%29.89 "Hg0 mi
11:30 PM
Aug 26
61 °FFog.6 mph88%29.89 "Hg1 mi
11:00 PM61 °FFog.6 mph88%29.86 "Hg1 mi
10:30 PM61 °FFog.6 mph94%29.86 "Hg1 mi
10:00 PM61 °FFog.1 mph94%29.86 "Hg1 mi
9:30 PM61 °FFog.1 mph94%29.86 "Hg1 mi
9:00 PM61 °FFog.1 mph94%29.86 "Hg1 mi
8:30 PM61 °FFog.1 mph94%29.86 "Hg1 mi
8:00 PM61 °FSprinkles. Fog.3 mph94%29.86 "Hg1 mi
7:30 PM61 °FSprinkles. Mostly cloudy.1 mph94%29.89 "Hg1 mi
7:00 PM61 °FSprinkles. Mostly cloudy.3 mph88%29.89 "Hg2 mi
6:30 PM61 °FSprinkles. Mostly cloudy.1 mph88%29.89 "Hg2 mi
6:00 PM63 °FSprinkles. Mostly cloudy.3 mph83%29.89 "Hg2 mi
5:30 PM63 °FSprinkles. More clouds than sun.8 mph83%29.86 "Hg2 mi
5:00 PM63 °FRain showers. Mostly cloudy.1 mph83%29.92 "Hg1 mi
Weather by CustomWeather, © 2014

See weather overviewHow to use our weather pages